#timestamp,LO_Frequency,Hit,StdDev 
1550840415.5,286046999.0,N
1550840435.3,286046999.6,N
1550840455.2,286046997.1,N
1550840475.9,286046996.6,N
1550840495.7,286046999.2,N
1550840515.6,286046998.3,N
1550840535.4,286046998.8,N
1550840555.2,286046999.6,N
1550840575.1,286046999.1,N
1550840576.0,286046999.1,N
1550840595.8,286047000.4,N
1550840615.7,286047000.8,N
1550840635.5,286046999.8,N
1550840655.3,286047002.8,N
1550840675.2,286047003.3,N
1550840695.0,286047003.4,N
1550840695.9,286047003.4,N
1550840715.8,286047003.0,N
1550840735.6,286047003.5,N
1550840755.4,286047003.9,N
1550840775.3,286047001.3,N
1550840795.1,286047002.4,N
1550840815.8,286047002.7,N
1550840835.7,286047001.7,N
1550840855.5,286047005.9,N
1550840875.4,286047002.7,N
1550840895.2,286047002.0,N
1550840915.0,286047002.7,N
1550840915.9,286047002.7,N
1550840935.8,286047002.8,N
1550840955.6,286047004.3,N
1550840975.4,286047002.4,N
1550840995.3,286047001.5,N
1550841015.1,286047003.2,N
1550841035.9,286047004.1,N
1550841055.7,286047003.7,N
1550841075.5,286046999.7,N
1550841095.4,286047002.1,N
1550841115.2,286047003.9,N
1550841135.0,286047002.2,N
1550841136.0,286047002.2,N
1550841155.8,286047000.9,N
1550841175.6,286047004.4,Y
1550841195.5,286046998.2,P
1550841215.3,286046998.6,N
1550841235.1,286047000.3,N
1550841255.9,286047002.1,N
1550841275.7,286047001.7,N
1550841295.6,286047001.5,N
1550841315.4,286047001.4,N
1550841335.2,286047003.3,N
1550841355.1,286047004.1,N
1550841356.0,286047004.1,N
1550841375.8,286047005.3,N
1550841395.6,286047007.3,Y
1550841415.5,286047003.7,P
1550841435.3,286047007.1,P
1550841455.2,286047005.1,N
1550841475.9,286047005.9,Y
1550841495.7,286046999.2,P
1550841515.6,286046996.7,N
1550841535.4,286046999.5,N
1550841555.3,286047000.7,N
1550841575.1,286046998.2,N
1550841576.0,286046998.2,N
1550841595.8,286046997.3,N
1550841615.7,286046993.9,N
1550841635.5,286046993.8,N
1550841655.3,286046991.7,N
1550841675.2,286046994.6,N
1550841695.0,286046996.0,N
1550841695.9,286046996.0,N
1550841715.8,286046996.1,N
1550841735.6,286046996.2,N
1550841755.4,286046995.3,N
1550841775.3,286046995.3,N
1550841795.1,286046997.8,N
1550841815.9,286046995.0,N
1550841835.7,286046994.9,N
1550841855.5,286046998.0,N
1550841875.4,286046995.4,N
1550841895.2,286046996.0,N
1550841915.0,286046994.6,N
1550841915.9,286046994.6,N
1550841935.8,286046996.0,N
1550841955.6,286046993.5,N
1550841975.5,286046994.5,N
1550841995.3,286046994.2,N
1550842015.1,286046994.5,N
1550842035.9,286046993.6,Y
1550842055.7,286046996.7,P
1550842075.5,286046997.2,P
1550842095.4,286046999.3,N
1550842115.2,286047000.7,N
1550842135.1,286046996.7,N
1550842136.0,286046996.7,N
1550842155.8,286046995.2,Y
1550842175.6,286046998.2,P
1550842195.5,286046999.8,N
1550842215.3,286047002.3,N
1550842235.2,286047002.4,N
1550842255.9,286047001.3,N
1550842275.7,286047001.9,N
1550842295.6,286047001.8,N
1550842315.4,286047001.3,N
1550842335.2,286047001.6,N
1550842355.1,286047003.8,N
1550842356.0,286047003.8,N
1550842375.8,286047003.8,N
1550842395.7,286047001.3,N
1550842415.5,286047003.6,N
1550842435.3,286047001.4,N
1550842455.2,286047002.7,N
1550842475.0,286047003.7,N
1550842475.9,286047003.7,N
1550842495.8,286047003.8,N
1550842515.6,286047005.8,Y
1550842535.4,286047001.3,P
1550842555.3,286047003.7,P
1550842575.1,286047005.7,P
1550842595.8,286047005.9,Y
1550842615.7,286047000.4,P
1550842635.5,286047002.7,N
1550842655.4,286046998.5,N
1550842675.2,286046999.4,N
1550842695.0,286046996.9,N
1550842695.9,286046996.9,N
1550842715.8,286046999.2,N
1550842735.6,286046997.6,N
1550842755.5,286046995.3,N
1550842775.3,286046999.1,N
1550842795.1,286046999.6,N
1550842815.9,286046997.7,N
1550842835.7,286046996.6,N
1550842855.5,286046997.7,N
1550842875.4,286046993.5,Y
1550842895.2,286046997.6,P
1550842915.1,286046996.8,P
1550842916.0,286046996.8,P
1550842935.8,286046997.2,Y
1550842955.6,286046998.6,P
1550842975.5,286047000.7,N
1550842995.3,286046998.6,N
1550843015.2,286046996.5,Y
1550843035.9,286046998.7,P
1550843055.7,286046996.8,P
1550843075.6,286046995.5,P
1550843095.4,286046999.5,N
1550843115.2,286046999.0,N
1550843135.1,286046996.5,N
1550843136.0,286046996.5,N
1550843155.8,286046996.6,N
1550843175.7,286046997.8,N
1550843195.5,286046998.0,N
1550843215.3,286046994.9,Y
1550843235.2,286047001.0,P
1550843255.0,286047002.3,N
1550843255.9,286047002.3,N
1550843275.8,286047002.8,N
1550843295.6,286046999.9,N
1550843315.4,286047000.1,N
1550843335.3,286047000.2,N
1550843355.1,286047000.5,N
1550843375.8,286046998.2,N
1550843395.7,286047002.8,N
1550843415.5,286047001.7,N
1550843435.4,286047002.4,N
1550843455.2,286047002.6,N
1550843475.0,286047000.4,N
1550843475.9,286047000.4,N
1550843495.8,286046998.8,N
1550843515.6,286046998.4,N
1550843535.4,286047001.1,N
1550843555.3,286047001.8,N
1550843575.1,286047001.8,N
1550843595.9,286047004.2,N
1550843615.7,286047003.6,N
1550843635.5,286047003.4,N
1550843655.4,286047004.8,N
1550843675.2,286047006.0,Y
1550843695.0,286047003.1,P
1550843696.0,286047003.1,P
1550843715.8,286047003.4,P
1550843735.6,286047003.8,Y
1550843755.5,286047000.7,P
1550843775.3,286047000.0,N
1550843795.1,286046999.8,N
1550843815.9,286047002.2,N
1550843835.7,286047000.0,N
1550843855.6,286047000.3,N
1550843875.4,286047000.2,N
1550843895.2,286047001.9,N
1550843915.1,286047001.6,N
1550843916.0,286047001.6,N
1550843935.8,286047001.9,N
1550843955.7,286047002.2,N
1550843975.5,286047002.4,N
1550843995.3,286047000.9,N
